Change the Weather History Date:

Sunday, October 28, 2012

  Actual Average Record
Temperature  
Mean Temperature 55 °F 47 °F  
Max Temperature 71 °F 60 °F 80 °F (2003)
Min Temperature 39 °F 34 °F 22 °F (1919)
Degree Days  
Heating Degree Days 10 18  
Month to date heating degree days 312 370  
Since 1 July heating degree days 357 607  
Cooling Degree Days 0 0  
Month to date cooling degree days 4 0  
Year to date cooling degree days 392 287  
Growing Degree Days 4 (Base 50)    
Moisture  
Dew Point 42 °F    
Average Humidity 73    
Maximum Humidity 92    
Minimum Humidity 39    
Precipitation  
Precipitation 0.00 in 0.12 in 2.00 in (1924)
Month to date precipitation 0.71 1.90  
Year to date precipitation 25.27 29.90  
Sea Level Pressure  
Sea Level Pressure 30.12 in    
Wind  
Wind Speed 1 mph (NNE)    
Max Wind Speed 5 mph    
Max Gust Speed 13 mph    
Visibility 10 miles    
Events      
T = Trace of Precipitation, MM = Missing Value Source: NWS Daily Summary

Daily Weather History Graph

Daily Weather History Graph

Search for Another Location

Airport or City:

Trip Planner

Search our weather history database for the weather conditions in past years. The results will help you decide how hot, cold, wet, or windy it might be!

Date:

Astronomy

Oct. 28, 2012 Rise Set
Actual Time 7:36 AM PDT 6:08 PM PDT
Civil Twilight 7:08 AM PDT 6:37 PM PDT
Nautical Twilight 6:35 AM PDT 7:09 PM PDT
Astronomical Twilight 6:03 AM PDT 7:41 PM PDT
Moon 5:29 PM PDT (10/28) 6:34 AM PDT (10/28)
Length of Visible Light 11h 29m
Length of Day
10h 32m
Waxing Gibbous, 99% of the Moon is Illuminated
Oct 28
Waxing Gibbous
Oct 29
Full
Nov 6
Last Quarter
Nov 13
New
Nov 20
First Quarter

Hourly Weather History & Observations

Time (PDT) Temp. Windchill Dew Point Humidity Pressure Visibility Wind Dir Wind Speed Gust Speed Precip Events Conditions
12:56 AM 41.0 °F - 37.9 °F 89% 30.17 in 10.0 mi Calm Calm - N/A   Clear
1:56 AM 39.9 °F - 37.0 °F 89% 30.18 in 10.0 mi Calm Calm - N/A   Clear
2:56 AM 42.1 °F 40.2 °F 37.9 °F 85% 30.16 in 10.0 mi ENE 3.5 mph - N/A   Clear
3:56 AM 41.0 °F 39.0 °F 37.9 °F 89% 30.15 in 10.0 mi NE 3.5 mph - N/A   Clear
4:56 AM 39.9 °F 36.7 °F 36.0 °F 86% 30.16 in 10.0 mi NE 4.6 mph - N/A   Clear
5:56 AM 39.9 °F - 36.0 °F 86% 30.16 in 10.0 mi Calm Calm - N/A   Clear
6:56 AM 39.9 °F - 36.0 °F 86% 30.16 in 10.0 mi Calm Calm - N/A   Clear
7:56 AM 39.0 °F 36.8 °F 36.0 °F 89% 30.18 in 10.0 mi NE 3.5 mph - N/A   Clear
8:56 AM 43.0 °F - 39.0 °F 86% 30.17 in 10.0 mi Calm Calm - N/A   Clear
9:56 AM 52.0 °F - 46.0 °F 80% 30.16 in 10.0 mi Calm Calm - N/A   Clear
10:56 AM 60.1 °F - 48.0 °F 64% 30.13 in 10.0 mi NNW 4.6 mph - N/A   Clear
11:56 AM 64.0 °F - 46.0 °F 52% 30.11 in 10.0 mi NW 3.5 mph - N/A   Clear
12:56 PM 66.9 °F - 46.9 °F 49% 30.09 in 10.0 mi Calm Calm - N/A   Clear
1:56 PM 70.0 °F - 44.1 °F 39% 30.06 in 10.0 mi Calm Calm - N/A   Clear
2:56 PM 68.0 °F - 45.0 °F 43% 30.06 in 10.0 mi Calm Calm - N/A   Clear
3:56 PM 68.0 °F - 43.0 °F 40% 30.05 in 10.0 mi Calm Calm - N/A   Clear
4:56 PM 66.0 °F - 45.0 °F 47% 30.05 in 10.0 mi Calm Calm - N/A   Clear
5:56 PM 61.0 °F - 46.0 °F 58% 30.07 in 10.0 mi Calm Calm - N/A   Clear
6:56 PM 55.0 °F - 46.0 °F 72% 30.10 in 10.0 mi Calm Calm - N/A   Clear
7:56 PM 51.1 °F - 46.0 °F 83% 30.12 in 10.0 mi Calm Calm - N/A   Clear
8:56 PM 51.1 °F - 46.0 °F 83% 30.12 in 10.0 mi Calm Calm - N/A   Clear
9:56 PM 52.0 °F - 46.0 °F 80% 30.12 in 10.0 mi Calm Calm - N/A   Scattered Clouds
10:56 PM 50.0 °F - 45.0 °F 83% 30.10 in 9.0 mi Calm Calm - N/A   Partly Cloudy
11:56 PM 48.0 °F - 44.1 °F 86% 30.10 in 10.0 mi Calm Calm - N/A   Clear